FW1574 Weather Reports


Display with metric or nautical units.
time (UTC)temp
F
wind
direction
speed
MPH
gust
MPH
rain 1hr
in
rain 24hr
in
rain mn
in
humidity
%
barometer
mb
20260901014504 77 360 0.0 0.0 0.00 0.00 0.00 87 1017.2
20260901014004 77 360 0.0 0.0 0.00 0.00 0.00 85 1017.1
20260901013504 77 360 0.0 0.0 0.00 0.00 0.00 85 1017.0
20260901013004 78 360 0.0 0.0 0.00 0.00 0.00 83 1017.0
20260901012503 78 360 0.0 0.0 0.00 0.00 0.00 83 1016.9
20260901012003 78 360 0.0 0.0 0.00 0.00 0.00 82 1016.9
20260901011503 79 360 0.0 0.0 0.00 0.00 0.00 83 1016.8
20260901011002 79 360 0.0 0.0 0.00 0.00 0.00 81 1016.7
20260901010505 79 360 0.0 0.0 0.00 0.00 0.00 83 1016.7
20260901010002 79 360 0.0 0.0 0.00 0.00 0.00 81 1016.6
20260901005505 79 360 0.0 0.0 0.00 0.00 0.00 81 1016.6
20260901005001 79 360 0.0 0.0 0.00 0.00 0.00 81 1016.6
20260901004501 80 360 0.0 0.0 0.00 0.00 0.00 79 1016.6
20260901004003 80 360 0.0 0.0 0.00 0.00 0.00 78 1016.4
20260901003504 80 360 0.0 0.0 0.00 0.00 0.00 78 1016.4
20260901003002 81 360 0.0 0.0 0.00 0.00 0.00 78 1016.3
20260901002501 81 360 0.0 0.0 0.00 0.00 0.00 77 1016.3
20260901002002 82 360 0.0 0.0 0.00 0.00 0.00 74 1016.3
20260901001613 82 360 0.0 0.0 0.00 0.00 0.00 73 1016.3
20260901001100 82 360 0.0 0.0 0.00 0.00 0.00 69 1016.4
20260901000600 83 360 0.0 0.0 0.00 0.00 0.00 70 1016.4
20260831235600 83 360 0.0 0.0 0.00 0.00 0.00 68 1016.4
20260831235100 84 360 0.0 0.0 0.00 0.00 0.00 67 1016.4
20260831234610 84 360 0.0 2.0 0.00 0.00 0.00 69 1016.4
20260831234100 85 360 0.0 2.0 0.00 0.00 0.00 66 1016.5
20260831233558 85 355 0.0 2.0 0.00 0.00 0.00 64 1016.5
20260831233059 85 355 0.0 0.0 0.00 0.00 0.00 66 1016.4
20260831232559 86 355 0.0 0.0 0.00 0.00 0.00 62 1016.5
20260831232057 86 355 0.0 0.0 0.00 0.00 0.00 65 1016.4
20260831231606 86 355 0.0 0.0 0.00 0.00 0.00 62 1016.5
20260831231059 87 355 0.0 0.0 0.00 0.00 0.00 62 1016.5
20260831230559 87 355 0.0 0.0 0.00 0.00 0.00 61 1016.6
20260831230056 87 355 0.0 0.0 0.00 0.00 0.00 60 1016.6
20260831225555 87 355 0.0 0.0 0.00 0.00 0.00 61 1016.6
20260831225058 87 355 0.0 0.0 0.00 0.00 0.00 61 1016.6
20260831224555 88 355 0.0 0.0 0.00 0.00 0.00 59 1016.7
20260831224059 88 355 0.0 0.0 0.00 0.00 0.00 59 1016.7
20260831223554 88 355 0.0 0.0 0.00 0.00 0.00 57 1016.7
20260831223054 89 355 0.0 2.0 0.00 0.00 0.00 57 1016.7
20260831222553 89 355 0.0 2.0 0.00 0.00 0.00 58 1016.7
20260831222057 89 15 0.0 0.0 0.00 0.00 0.00 56 1016.6
20260831221553 90 15 0.0 1.0 0.00 0.00 0.00 55 1016.7
20260831221053 90 15 0.0 2.0 0.00 0.00 0.00 52 1016.7
20260831220553 90 15 0.0 2.0 0.00 0.00 0.00 53 1016.8
20260831220110 90 344 0.0 2.0 0.00 0.00 0.00 54 1016.8
20260831215554 90 344 0.0 2.0 0.00 0.00 0.00 52 1016.7
20260831215052 90 342 0.0 2.0 0.00 0.00 0.00 55 1016.7
20260831214552 89 258 0.0 1.0 0.00 0.00 0.00 56 1016.8
20260831214050 90 258 0.0 2.0 0.00 0.00 0.00 56 1016.9
20260831213550 90 258 1.0 2.0 0.00 0.00 0.00 52 1016.9
20260831213051 90 258 0.0 2.0 0.00 0.00 0.00 55 1016.9
20260831212553 90 258 0.0 2.0 0.00 0.00 0.00 56 1017.0
20260831212050 90 257 1.0 2.0 0.00 0.00 0.00 52 1017.0
20260831211605 90 283 0.0 2.0 0.00 0.00 0.00 52 1017.0
20260831211049 90 288 0.0 2.0 0.00 0.00 0.00 53 1017.0
20260831210555 90 163 1.0 2.0 0.00 0.00 0.00 55 1017.0
20260831210053 90 163 0.0 2.0 0.00 0.00 0.00 53 1017.1
20260831205548 91 299 1.0 2.0 0.00 0.00 0.00 53 1017.0
20260831205049 90 265 0.0 2.0 0.00 0.00 0.00 56 1017.1
20260831204548 91 265 0.0 2.0 0.00 0.00 0.00 55 1017.0
20260831204048 91 265 0.0 2.0 0.00 0.00 0.00 54 1017.1
20260831203547 90 265 0.0 2.0 0.00 0.00 0.00 57 1017.1
20260831203049 90 265 0.0 2.0 0.00 0.00 0.00 52 1017.3
20260831202546 91 265 1.0 2.0 0.00 0.00 0.00 55 1017.4
20260831202046 91 265 0.0 2.0 0.00 0.00 0.00 53 1017.4
20260831201551 90 265 0.0 0.0 0.00 0.00 0.00 52 1017.4
20260831201048 90 243 0.0 0.0 0.00 0.00 0.00 53 1017.5
20260831200544 91 243 0.0 0.0 0.00 0.00 0.00 51 1017.6
20260831200045 91 242 0.0 0.0 0.00 0.00 0.00 54 1017.6
20260831195545 90 84 0.0 0.0 0.00 0.00 0.00 56 1017.8
20260831195045 90 90 0.0 0.0 0.00 0.00 0.00 51 1017.9
20260831194616 91 221 0.0 3.0 0.00 0.00 0.00 51 1018.0
20260831194044 91 246 1.0 3.0 0.00 0.00 0.00 49 1018.0
20260831193544 90 286 0.0 2.0 0.00 0.00 0.00 55 1018.0
20260831193045 91 286 0.0 2.0 0.00 0.00 0.00 57 1018.1
20260831192539 90 329 0.0 0.0 0.00 0.00 0.00 57 1018.1
20260831192039 90 325 0.0 1.0 0.00 0.00 0.00 57 1018.2
20260831191541 90 287 0.0 2.0 0.00 0.00 0.00 56 1018.3
20260831191038 90 284 0.0 3.0 0.00 0.00 0.00 56 1018.3
20260831190538 90 289 0.0 3.0 0.00 0.00 0.00 60 1018.3
20260831190043 90 256 0.0 3.0 0.00 0.00 0.00 59 1018.4
20260831185537 90 256 1.0 3.0 0.00 0.00 0.00 59 1018.4
20260831185034 89 265 1.0 3.0 0.00 0.00 0.00 63 1018.4
20260831184554 88 321 0.0 3.0 0.00 0.00 0.00 61 1018.5
20260831184035 87 223 2.0 3.0 0.00 0.00 0.00 62 1018.6
20260831183536 87 282 0.0 2.0 0.00 0.00 0.00 64 1018.6
20260831183039 88 282 0.0 2.0 0.00 0.00 0.00 62 1018.7
20260831182534 88 286 0.0 3.0 0.00 0.00 0.00 63 1018.7
20260831182036 88 263 0.0 3.0 0.00 0.00 0.00 62 1018.8
20260831181534 88 19 0.0 3.0 0.00 0.00 0.00 62 1018.9
20260831181034 88 108 1.0 3.0 0.00 0.00 0.00 62 1018.9
20260831180533 89 360 0.0 3.0 0.00 0.00 0.00 63 1019.0
20260831180036 89 108 1.0 3.0 0.00 0.00 0.00 61 1019.1
20260831175533 88 41 0.0 2.0 0.00 0.00 0.00 65 1019.1
20260831175031 87 331 0.0 3.0 0.00 0.00 0.00 66 1019.1
20260831174531 88 267 1.0 3.0 0.00 0.00 0.00 63 1019.1
20260831174031 87 308 0.0 3.0 0.00 0.00 0.00 66 1019.2
20260831173534 88 211 1.0 3.0 0.00 0.00 0.00 62 1019.3
20260831173033 88 343 0.0 3.0 0.00 0.00 0.00 63 1019.2
20260831172529 87 254 1.0 3.0 0.00 0.00 0.00 66 1019.3
20260831172028 88 248 1.0 3.0 0.00 0.00 0.00 64 1019.4
20260831171528 88 338 1.0 2.0 0.00 0.00 0.00 65 1019.3
20260831171027 87 323 1.0 3.0 0.00 0.00 0.00 68 1019.3
20260831170526 86 347 0.0 2.0 0.00 0.00 0.00 68 1019.3
20260831170025 86 45 0.0 2.0 0.00 0.00 0.00 69 1019.5
20260831165528 85 249 0.0 1.0 0.00 0.00 0.00 73 1019.6
20260831165025 84 228 0.0 0.0 0.00 0.00 0.00 75 1019.7
20260831164527 84 228 0.0 2.0 0.00 0.00 0.00 74 1019.8
20260831164025 85 228 0.0 3.0 0.00 0.00 0.00 71 1019.8
20260831163525 87 275 1.0 3.0 0.00 0.00 0.00 71 1019.8
20260831163025 87 271 1.0 3.0 0.00 0.00 0.00 70 1019.8
20260831162524 86 204 0.0 2.0 0.00 0.00 0.00 69 1019.8
20260831162023 86 109 1.0 2.0 0.00 0.00 0.00 68 1019.9
20260831161523 86 188 0.0 5.0 0.00 0.00 0.00 70 1019.9
20260831161023 86 105 1.0 5.0 0.00 0.00 0.00 69 1019.9
20260831160521 86 119 1.0 4.0 0.00 0.00 0.00 70 1020.0
20260831160027 85 262 1.0 2.0 0.00 0.00 0.00 71 1020.0
20260831155521 85 233 1.0 3.0 0.00 0.00 0.00 71 1020.1
20260831155120 85 54 0.0 3.0 0.00 0.00 0.00 74 1020.1
20260831154521 85 313 1.0 3.0 0.00 0.00 0.00 72 1020.1
20260831154021 84 260 1.0 3.0 0.00 0.00 0.00 73 1020.1
20260831153521 84 225 0.0 3.0 0.00 0.00 0.00 74 1020.1
20260831153016 84 264 1.0 3.0 0.00 0.00 0.00 74 1020.1
20260831152515 83 176 0.0 5.0 0.00 0.00 0.00 75 1020.1
20260831152017 84 107 2.0 4.0 0.00 0.00 0.00 74 1020.3
20260831151514 83 98 0.0 3.0 0.00 0.00 0.00 76 1020.2
20260831151014 82 230 0.0 2.0 0.00 0.00 0.00 76 1020.3
20260831150513 82 230 1.0 2.0 0.00 0.00 0.00 77 1020.3
20260831150014 82 272 0.0 2.0 0.00 0.00 0.00 78 1020.4
20260831145510 82 119 0.0 2.0 0.00 0.00 0.00 77 1020.4
20260831145009 82 236 0.0 2.0 0.00 0.00 0.00 78 1020.4
20260831144517 81 213 0.0 0.0 0.00 0.00 0.00 79 1020.3
20260831144008 81 229 0.0 2.0 0.00 0.00 0.00 81 1020.4
20260831143507 81 229 0.0 3.0 0.00 0.00 0.00 80 1020.4
20260831143006 81 148 0.0 3.0 0.00 0.00 0.00 81 1020.3
20260831142505 80 170 0.0 1.0 0.00 0.00 0.00 83 1020.3
20260831142007 79 170 0.0 0.0 0.00 0.00 0.00 85 1020.3
20260831141502 79 170 0.0 1.0 0.00 0.00 0.00 85 1020.4
20260831141001 78 170 0.0 1.0 0.00 0.00 0.00 85 1020.3
20260831140600 77 170 0.0 1.0 0.00 0.00 0.00 89 1020.3
20260831140058 75 103 0.0 0.0 0.00 0.00 0.00 94 1020.3
20260831135559 74 103 0.0 0.0 0.00 0.00 0.00 95 1020.3
20260831135057 74 103 0.0 0.0 0.00 0.00 0.00 96 1020.2
20260831134559 74 103 0.0 0.0 0.00 0.00 0.00 96 1020.2
20260831134055 74 103 0.0 0.0 0.00 0.00 0.00 96 1020.2
20260831133555 74 103 0.0 1.0 0.00 0.00 0.00 97 1020.3
20260831133055 73 103 0.0 2.0 0.00 0.00 0.00 97 1020.3
20260831132554 73 103 0.0 2.0 0.00 0.00 0.00 97 1020.2
20260831132054 73 103 0.0 2.0 0.00 0.00 0.00 97 1020.3
20260831131552 73 103 0.0 2.0 0.00 0.00 0.00 97 1020.3
20260831131052 72 103 0.0 0.0 0.00 0.00 0.00 97 1020.3
20260831130552 72 103 0.0 0.0 0.00 0.00 0.00 97 1020.2
20260831130052 72 103 0.0 0.0 0.00 0.00 0.00 97 1020.1
20260831125555 71 103 0.0 0.0 0.00 0.00 0.00 97 1020.1
20260831125050 71 103 0.0 0.0 0.00 0.00 0.00 97 1020.0
20260831124550 71 103 0.0 0.0 0.00 0.00 0.00 97 1019.9
20260831124050 71 103 0.0 0.0 0.00 0.00 0.00 97 1020.0
20260831123549 70 103 0.0 0.0 0.00 0.00 0.00 96 1020.0
20260831123049 70 103 0.0 0.0 0.00 0.00 0.00 96 1019.9
20260831122548 70 103 0.0 0.0 0.00 0.00 0.00 96 1019.8
20260831122048 70 103 0.0 0.0 0.00 0.00 0.00 96 1019.9
20260831121548 69 103 0.0 0.0 0.00 0.00 0.00 96 1019.8
20260831121050 69 103 0.0 0.0 0.00 0.00 0.00 96 1019.8
20260831120551 69 103 0.0 0.0 0.00 0.00 0.00 96 1019.8
20260831120046 69 103 0.0 0.0 0.00 0.00 0.00 96 1019.8
20260831115546 69 103 0.0 0.0 0.00 0.00 0.00 96 1019.8
20260831115045 69 103 0.0 0.0 0.00 0.00 0.00 96 1019.7
20260831114547 69 103 0.0 0.0 0.00 0.00 0.00 95 1019.7
20260831114046 69 103 0.0 0.0 0.00 0.00 0.00 96 1019.5
20260831113543 69 103 0.0 0.0 0.00 0.00 0.00 96 1019.4
20260831113048 69 103 0.0 0.0 0.00 0.00 0.00 95 1019.4
20260831112543 69 103 0.0 0.0 0.00 0.00 0.00 95 1019.4
20260831112042 69 103 0.0 0.0 0.00 0.00 0.00 95 1019.4
20260831111603 69 103 0.0 0.0 0.00 0.00 0.00 95 1019.4
20260831111041 69 103 0.0 0.0 0.00 0.00 0.00 95 1019.2
20260831110540 69 103 0.0 0.0 0.00 0.00 0.00 95 1019.2
20260831110058 69 103 0.0 0.0 0.00 0.00 0.00 95 1019.1
20260831105539 69 103 0.0 0.0 0.00 0.00 0.00 95 1019.0
20260831105038 69 103 0.0 0.0 0.00 0.00 0.00 95 1018.9
20260831104538 70 103 0.0 0.0 0.00 0.00 0.00 95 1018.8
20260831104038 70 103 0.0 0.0 0.00 0.00 0.00 95 1018.8
20260831103536 70 103 0.0 0.0 0.00 0.00 0.00 95 1018.8
20260831103036 70 103 0.0 0.0 0.00 0.00 0.00 95 1018.8
20260831102537 70 103 0.0 0.0 0.00 0.00 0.00 95 1018.8
20260831102036 70 103 0.0 0.0 0.00 0.00 0.00 95 1018.8
20260831101536 70 103 0.0 0.0 0.00 0.00 0.00 95 1018.8
20260831101034 70 103 0.0 0.0 0.00 0.00 0.00 95 1018.7
20260831100533 70 103 0.0 0.0 0.00 0.00 0.00 95 1018.7
20260831100032 70 103 0.0 0.0 0.00 0.00 0.00 95 1018.6
20260831095532 70 103 0.0 0.0 0.00 0.00 0.00 95 1018.6
20260831095032 70 103 0.0 0.0 0.00 0.00 0.00 95 1018.5
20260831094538 70 103 0.0 0.0 0.00 0.00 0.00 95 1018.5
20260831094034 70 103 0.0 1.0 0.00 0.00 0.00 95 1018.4
20260831093532 70 103 0.0 2.0 0.00 0.00 0.00 95 1018.4
20260831093029 70 103 1.0 2.0 0.00 0.00 0.00 94 1018.3
20260831092528 70 103 0.0 0.0 0.00 0.00 0.00 94 1018.3
20260831092027 70 103 0.0 0.0 0.00 0.00 0.00 94 1018.2
20260831091527 70 103 0.0 0.0 0.00 0.00 0.00 95 1018.2
20260831091026 70 103 0.0 0.0 0.00 0.00 0.00 94 1018.2
20260831090526 70 103 0.0 0.0 0.00 0.00 0.00 94 1018.2
20260831090025 70 103 0.0 0.0 0.00 0.00 0.00 94 1018.2
20260831085525 70 103 0.0 0.0 0.00 0.00 0.00 94 1018.2
20260831085027 71 103 0.0 0.0 0.00 0.00 0.00 94 1018.2
20260831084535 71 103 0.0 0.0 0.00 0.00 0.00 94 1018.2
20260831084022 71 103 0.0 0.0 0.00 0.00 0.00 94 1018.1
20260831083521 71 103 0.0 0.0 0.00 0.00 0.00 94 1018.1
20260831083021 71 103 0.0 0.0 0.00 0.00 0.00 94 1018.1
20260831082624 71 103 0.0 0.0 0.00 0.00 0.00 94 1018.2
20260831082021 71 103 0.0 0.0 0.00 0.00 0.00 94 1018.1
20260831081525 71 103 0.0 0.0 0.00 0.00 0.00 94 1018.2
20260831081020 71 103 0.0 0.0 0.00 0.00 0.00 94 1018.1
20260831080520 71 103 0.0 0.0 0.00 0.00 0.00 94 1018.2
20260831080019 71 103 0.0 0.0 0.00 0.00 0.00 94 1018.1
20260831075519 71 103 0.0 0.0 0.00 0.00 0.00 94 1018.1
20260831075118 71 103 0.0 1.0 0.00 0.00 0.00 94 1018.1
20260831074555 71 103 0.0 1.0 0.00 0.00 0.00 94 1018.1
20260831074055 71 103 0.0 0.0 0.00 0.00 0.00 94 1018.0
20260831074018 71 103 0.0 0.0 0.00 0.00 0.00 94 1018.0
20260831073100 71 103 0.0 0.0 0.00 0.00 0.00 94 1018.1
20260831072533 71 103 0.0 0.0 0.00 0.00 0.00 94 1018.0
20260831072032 71 103 0.0 0.0 0.00 0.00 0.00 94 1018.1
20260831071532 71 103 0.0 0.0 0.00 0.00 0.00 94 1018.1
20260831071035 71 103 0.0 0.0 0.00 0.00 0.00 94 1018.2
20260831070532 71 103 0.0 0.0 0.00 0.00 0.00 94 1018.2
20260831065514 71 103 0.0 0.0 0.00 0.00 0.00 94 1018.1
20260831065009 71 103 0.0 0.0 0.00 0.00 0.00 94 1018.2
20260831064525 71 103 0.0 1.0 0.00 0.00 0.00 94 1018.3
20260831064008 72 103 0.0 1.0 0.00 0.00 0.00 94 1018.3
20260831063508 72 103 0.0 0.0 0.00 0.00 0.00 94 1018.2
20260831063015 72 103 0.0 0.0 0.00 0.00 0.00 94 1018.2
20260831062508 72 103 0.0 0.0 0.00 0.00 0.00 94 1018.2
20260831062008 72 103 0.0 1.0 0.00 0.00 0.00 94 1018.2
20260831061508 72 103 0.0 2.0 0.00 0.00 0.00 94 1018.2
20260831061008 72 103 0.0 1.0 0.00 0.00 0.00 94 1018.2
20260831060507 72 103 0.0 2.0 0.00 0.00 0.00 94 1018.3
20260831060006 72 103 0.0 2.0 0.00 0.00 0.00 94 1018.3
20260831055505 72 103 0.0 0.0 0.00 0.00 0.00 94 1018.2
20260831055005 72 103 0.0 0.0 0.00 0.00 0.00 94 1018.2
20260831054505 72 103 0.0 0.0 0.00 0.00 0.00 94 1018.3
20260831054005 72 103 0.0 0.0 0.00 0.00 0.00 94 1018.3
20260831053504 72 103 0.0 0.0 0.00 0.00 0.00 94 1018.2
20260831053012 72 103 0.0 1.0 0.00 0.00 0.00 94 1018.2
20260831052506 72 103 0.0 1.0 0.00 0.00 0.00 94 1018.1
20260831052004 72 103 0.0 0.0 0.00 0.00 0.00 95 1018.1
20260831051503 73 103 0.0 0.0 0.00 0.00 0.00 95 1018.1
20260831051003 72 103 0.0 0.0 0.00 0.00 0.00 95 1017.9
20260831050502 72 103 0.0 0.0 0.00 0.00 0.00 95 1018.0
20260831050004 72 103 0.0 0.0 0.00 0.00 0.00 95 1018.0
20260831045502 72 103 0.0 2.0 0.00 0.00 0.00 95 1018.1
20260831045001 73 103 0.0 2.0 0.00 0.00 0.00 95 1018.2
20260831044502 73 103 0.0 1.0 0.00 0.00 0.00 95 1018.2
20260831044003 73 103 0.0 1.0 0.00 0.00 0.00 95 1018.2
20260831043501 73 103 0.0 0.0 0.00 0.00 0.00 95 1018.2
20260831043100 73 103 0.0 0.0 0.00 0.00 0.00 94 1018.2
20260831042559 73 103 0.0 0.0 0.00 0.00 0.00 94 1018.1
20260831042059 73 103 0.0 0.0 0.00 0.00 0.00 94 1018.2
20260831041604 73 103 0.0 0.0 0.00 0.00 0.00 94 1018.2
20260831041100 73 103 0.0 0.0 0.00 0.00 0.00 94 1018.2
20260831040558 73 103 0.0 0.0 0.00 0.00 0.00 94 1018.2
20260831040056 73 103 0.0 0.0 0.00 0.00 0.00 93 1018.2
20260831035556 73 103 0.0 0.0 0.00 0.00 0.00 93 1018.2
20260831035055 74 103 0.0 0.0 0.00 0.00 0.00 92 1018.2
20260831034555 74 103 0.0 0.0 0.00 0.00 0.00 92 1018.3
20260831034055 74 103 0.0 0.0 0.00 0.00 0.00 92 1018.3
20260831033555 74 103 0.0 0.0 0.00 0.00 0.00 92 1018.2
20260831033055 74 103 0.0 0.0 0.00 0.00 0.00 91 1018.1
20260831032555 74 103 0.0 0.0 0.00 0.00 0.00 92 1018.0
20260831032055 74 103 0.0 0.0 0.00 0.00 0.00 91 1018.0
20260831031556 74 103 0.0 0.0 0.00 0.00 0.00 91 1018.1
20260831031054 74 103 0.0 0.0 0.00 0.00 0.00 91 1018.1
20260831030554 74 103 0.0 0.0 0.00 0.00 0.00 91 1018.0
20260831030059 74 103 0.0 0.0 0.00 0.00 0.00 92 1018.1
20260831025554 74 103 0.0 0.0 0.00 0.00 0.00 91 1018.1
20260831025056 74 103 0.0 0.0 0.00 0.00 0.00 91 1018.1
20260831024556 75 103 0.0 0.0 0.00 0.00 0.00 91 1018.1
20260831024054 75 103 0.0 0.0 0.00 0.00 0.00 90 1018.3
20260831023553 75 103 0.0 0.0 0.00 0.00 0.00 90 1018.2
20260831023053 75 103 0.0 0.0 0.00 0.00 0.00 90 1018.2
20260831022556 75 103 0.0 0.0 0.00 0.00 0.00 89 1018.1
20260831022053 76 103 0.0 0.0 0.00 0.00 0.00 89 1018.1
20260831021555 76 103 0.0 0.0 0.00 0.00 0.00 90 1018.0
20260831021053 76 103 0.0 0.0 0.00 0.00 0.00 89 1017.9
20260831020553 76 103 0.0 0.0 0.00 0.00 0.00 90 1017.9
20260831020053 76 103 0.0 0.0 0.00 0.00 0.00 90 1017.8
20260831015551 76 103 0.0 0.0 0.00 0.00 0.00 89 1017.8
20260831015052 76 103 0.0 0.0 0.00 0.00 0.00 89 1017.7